www.pogodaiklimat.ru
ПОГОДА в Влодаве

Архив погоды в Влодаве (Польша)

Время
(UTC), дата
19 13.05
20 13.05
21 13.05
22 13.05
23 13.05
00 14.05
01 14.05
02 14.05
03 14.05
04 14.05
05 14.05
06 14.05
07 14.05
08 14.05
09 14.05
10 14.05
11 14.05
12 14.05
13 14.05
14 14.05
15 14.05
16 14.05
17 14.05
18 14.05
19 14.05
20 14.05
21 14.05
22 14.05
23 14.05
00 15.05
01 15.05
02 15.05
03 15.05
04 15.05
05 15.05
06 15.05
07 15.05
08 15.05
09 15.05
10 15.05
11 15.05
12 15.05
13 15.05
14 15.05
15 15.05
16 15.05
17 15.05
18 15.05
19 15.05
20 15.05
21 15.05
22 15.05
23 15.05
00 16.05
01 16.05
02 16.05
03 16.05
04 16.05
05 16.05
06 16.05
07 16.05
08 16.05
09 16.05
10 16.05
11 16.05
12 16.05
13 16.05
14 16.05
15 16.05
16 16.05
17 16.05
18 16.05
19 16.05
20 16.05
21 16.05
22 16.05
23 16.05
00 17.05
01 17.05
02 17.05
03 17.05
04 17.05
05 17.05
06 17.05
07 17.05
08 17.05
09 17.05
10 17.05
11 17.05
12 17.05
13 17.05
14 17.05
15 17.05
16 17.05
17 17.05
18 17.05
19 17.05
20 17.05
21 17.05
22 17.05
23 17.05
00 18.05
01 18.05
02 18.05
03 18.05
04 18.05
05 18.05
06 18.05
07 18.05
08 18.05
09 18.05
10 18.05
11 18.05
12 18.05
13 18.05
14 18.05
15 18.05
16 18.05
17 18.05
18 18.05
19 18.05
20 18.05
21 18.05
22 18.05
23 18.05
00 19.05
01 19.05
02 19.05
03 19.05
04 19.05
05 19.05
06 19.05
07 19.05
08 19.05
09 19.05
10 19.05
11 19.05
12 19.05
13 19.05
14 19.05
15 19.05
16 19.05
17 19.05
18 19.05
19 19.05
20 19.05
21 19.05
22 19.05
23 19.05
00 20.05
01 20.05
02 20.05
03 20.05
04 20.05
05 20.05
06 20.05
07 20.05
08 20.05
09 20.05
10 20.05
11 20.05
12 20.05
13 20.05
14 20.05
15 20.05
16 20.05
17 20.05
Ветер
(напр.,м/с)
Видим. Явления Облачность Т
(С)
Тd
(С)
f
(%)
Тe
(С)
Тes
(С)
Комфортность P
(гПа)
Po
(гПа)
Тmin
(С)
Tmax
(С)
R
(мм)
R24
(мм)
S
(см)
В 1 20 км 1/0
[Ac trans]
+12.5 +2.9 52 +13 +13 1018.8 997.2
штиль 0 20 км ясно +10.3 +2.6 59 +10 +10 1018.8 997.0
штиль 0 40 км н/о +7.9 +3.5 74 +7 +7 1019.2 997.2
ЮВ 1 40 км н/о +5.9 +2.9 81 +5 +5 1019.4 997.2
З 1 40 км н/о +5.6 +3.1 84 +4 +4 1019.3 997.1
Ю 1 30 км н/о +4.9 +2.8 86 +4 +4 1019.2 997.0
З 1 27 км н/о +4.6 +2.8 88 +3 +3 1019.3 997.0
штиль 0 28 км н/о +4.0 +2.7 91 +3 +3 1019.4 997.1
штиль 0 27 км н/о +3.3 +2.3 93 +2 +2 1019.6 997.2
штиль 0 19 км н/о +5.8 +4.3 90 +5 +5 1019.7 997.5
СВ 1 20 км 8/0
[Ac trans Ci fib]
+8.2 +6.2 87 +7 +9 1019.7 997.7
ЮВ 2 20 км 8/0
[Ac trans Cs]
+14.0 +6.4 60 +14 +18 1019.3 997.8 +3.0 +16.0
ЮВ 2 {8} 20 км 4/0
[Ac trans Cs]
+15.9 +2.3 40 +16 +24 1019.4 998.0
ЮВ 1 20 км 5/1 1500 м
[Cu hum Ac lent Cc]
+17.5 +2.6 37 +19 +28 1019.4 998.1
В 3 {8} 20 км 8/1 2000 м
[Cu hum Ac lent Cc]
+18.3 +0.9 31 +19 +25 1019.3 998.1
СВ 3 20 км 8/3 2000 м
[Cu med, cong Ac lent Cc]
+19.5 +2.8 33 +20 +26 1019.1 998.0
В 3 20 км 8/4 1500 м
[Cu med, cong Ac trans Cs]
+19.2 +2.9 34 +20 +25 1019.0 997.8
ЮВ 5 {8} 20 км 8/4 1500 м
[Cu med, cong Ac trans Cs]
+18.5 +2.7 35 +18 +21 1018.9 997.7
В 5 {9} 20 км 8/3 1500 м
[Cu med, cong Ac trans Cs]
+18.9 +3.5 36 +19 +22 1018.9 997.7
В 4 20 км 8/3 1500 м
[Cu med, cong Ac trans Ci fib]
+18.0 +2.3 35 +18 +20 1019.0 997.8
В 4 {9} 20 км 8/4 1500 м
[Cu med, cong Ac trans]
+17.2 +2.4 37 +17 +18 1019.2 997.9
ЮВ 4 20 км 5/4 1500 м
[Sc diur, vesp Ac lent]
+16.0 +2.4 40 +15 +16 1019.3 997.9
В 3 20 км 3/1 1500 м
[Sc diur, vesp Ac lent]
+15.4 +1.9 40 +15 +15 1019.6 998.2
В 2 {9} 20 км 1/1 1000 м
[Sc diur, vesp Ac lent]
+14.4 +2.3 44 +14 +14 1020.0 998.5 +13.8 +19.8
В 2 20 км 1/1 1000 м
[Sc]
+13.0 +1.9 47 +13 +13 1020.5 998.9
В 3 20 км ясно +11.9 +0.9 47 +11 +11 1020.9 999.2
В 3 50 км н/о +11.0 +1.2 51 +9 +9 1021.2 999.4
В 3 45 км н/о +9.9 +1.5 56 +8 +8 1021.5 999.6
ЮВ 3 50 км н/о +9.3 +1.0 56 +7 +7 1021.6 999.7
В 2 50 км н/о +8.2 +0.4 58 +7 +7 1021.8 999.8
В 2 40 км н/о +7.5 +0.2 60 +6 +6 1021.8 999.7
В 2 45 км н/о +7.3 -0.2 59 +6 +6 1022.0 999.9
С 2 30 км н/о +3.9 +1.1 82 +1 +1 1022.5 1000.1
С 1 35 км н/о +5.7 +2.2 78 +5 +5 1022.7 1000.4
В 3 20 км 1/0
[Ci fib]
+9.3 +2.4 62 +7 +10 1022.7 1000.7
ЮВ 3 20 км ясно +12.1 +3.1 54 +11 +16 1022.7 1000.9 +3.9 +14.4
В 3 20 км ясно +13.5 +3.8 52 +13 +20 1022.9 1001.2
В 4 20 км 6/6 1000 м
[Cu med, cong]
+15.0 +3.2 45 +14 +17 1022.8 1001.3
В 5-10 {10} 20 км 5/5 1500 м
[Cu hum]
+16.5 +1.7 37 +16 +20 1022.7 1001.3
В 5-10 {10} 20 км 5/5 1500 м
[Cu hum]
+16.1 +1.8 38 +15 +19 1022.9 1001.4
В 4 {17} 20 км 5/5 1500 м
[Cu hum]
+16.3 +0.8 35 +16 +21 1022.8 1001.4
В 5 {17} 20 км 5/5 1500 м
[Cu hum]
+18.0 +1.0 32 +18 +21 1022.5 1001.2
В 5 {11} 20 км 4/4 1500 м
[Cu hum]
+17.8 +0.9 32 +17 +21 1022.1 1000.8
В 5 {10} 20 км 3/1 1500 м
[Cu hum Ci fib]
+18.0 +1.0 32 +18 +22 1021.7 1000.4
В 4 {11} 20 км 3/1 1000 м
[Sc diur, vesp Ci fib]
+17.9 +0.5 31 +18 +21 1021.5 1000.2
В 4 20 км 1/0
[Ci fib]
+17.6 +0.3 31 +17 +19 1021.4 1000.1
ЮВ 4 20 км 1/0
[Ci fib]
+16.9 +0.1 32 +17 +17 1021.6 1000.2
ЮВ 3 {11} 20 км 1/0
[Ci fib]
+15.4 +0.4 36 +15 +15 1021.9 1000.4 +11.7 +18.5
В 3 20 км 1/0
[Ci fib]
+13.9 +0.5 40 +13 +13 1022.4 1000.8
В 2 20 км 1/0
[Ci fib]
+12.5 +0.6 44 +12 +12 1022.7 1001.0
В 3 40 км н/о +11.6 +0.4 46 +10 +10 1023.2 1001.4
ЮВ 3 45 км н/о +10.9 +0.3 48 +9 +9 1023.3 1001.4
ЮВ 3 45 км н/о +10.0 +0.6 52 +8 +8 1023.5 1001.6
В 3 45 км н/о +9.4 +0.3 53 +7 +7 1023.9 1001.9
ЮВ 3 50 км н/о +8.9 +0.1 54 +7 +7 1023.9 1001.9
В 3 45 км н/о +9.0 +0.2 54 +7 +7 1023.9 1001.9
В 2 40 км н/о +7.8 +0.7 61 +6 +6 1024.1 1002.0
В 2 30 км н/о +8.5 +1.9 63 +7 +7 1024.3 1002.2
В 3 20 км 5/0
[Cs]
+10.5 +2.1 56 +9 +11 1024.4 1002.5
В 3 20 км 4/0
[Cs]
+12.7 +2.0 48 +12 +16 1024.2 1002.5 +7.6 +15.4
В 3 20 км 1/0
[Ci fib]
+14.7 +3.2 46 +14 +21 1024.3 1002.7
В 5 20 км 1/1 1500 м
[Cu hum Ci fib]
+16.2 +1.5 37 +15 +21 1024.1 1002.6
ЮВ 7-12 {12} 20 км 3/1 2000 м
[Cu hum Ci fib]
+17.5 -0.3 30 +17 +20 1023.9 1002.5
ЮВ 6 {12} 20 км 3/1 2000 м
[Cu hum Ci fib]
+18.0 -0.3 29 +17 +23 1023.5 1002.2
ЮВ 6 20 км 3/1 2000 м
[Cu hum Ci fib]
+18.3 -0.5 28 +18 +23 1023.4 1002.1
ЮВ 6 {12} 20 км 1/1 2000 м
[Cu hum Ci fib]
+19.4 -0.6 26 +19 +24 1022.8 1001.6
В 5 {11} 20 км 1/1 2000 м
[Cu hum Ci fib]
+19.0 -0.4 27 +19 +24 1022.3 1001.1
В 6 20 км 1/1 2000 м
[Sc diur, vesp]
+19.2 -0.3 27 +19 +22 1022.0 1000.8
В 6 {11} 20 км 1/1 2000 м
[Sc diur, vesp]
+19.2 -0.8 26 +19 +21 1021.8 1000.6
ЮВ 5 {10} 20 км ясно +18.6 -0.3 28 +18 +20 1021.8 1000.5
ЮВ 5 {10} 20 км ясно +17.7 -0.6 29 +17 +18 1021.9 1000.6
В 3 {11} 20 км ясно +16.2 -0.5 32 +16 +16 1022.2 1000.8 +12.6 +19.7
В 2 20 км ясно +14.2 +0.8 40 +14 +14 1022.9 1001.3
В 3 20 км ясно +13.0 +1.9 47 +12 +12 1023.0 1001.3
В 3 50 км н/о +12.6 -0.3 41 +12 +12 1023.1 1001.4
ЮВ 3 45 км н/о +11.7 -0.5 43 +10 +10 1023.1 1001.3
ЮВ 3 50 км н/о +10.7 -0.2 47 +9 +9 1023.2 1001.3
ЮВ 3 45 км н/о +9.6 -0.1 51 +8 +8 1023.3 1001.3
В 3 45 км н/о +9.1 0.0 53 +7 +7 1023.3 1001.3
В 3 50 км н/о +8.3 0.0 56 +6 +6 1023.1 1001.0
ЮВ 2 16 км н/о +7.1 -0.1 60 +5 +5 1022.8 1000.7
В 3 45 км н/о +9.3 +1.0 56 +7 +7 1022.9 1000.9
ЮВ 4 20 км ясно +11.6 +2.1 52 +10 +12 1022.6 1000.8
ЮВ 5 20 км ясно +14.2 +2.4 45 +13 +16 1022.4 1000.8 +7.1 +16.2
ЮВ 5 20 км ясно +15.7 +2.5 41 +15 +20 1022.0 1000.5
В 6-11 {11} 20 км ясно +17.1 +1.5 35 +16 +21 1021.5 1000.1
ЮВ 6-11 {11} 20 км ясно +18.1 +1.6 33 +18 +23 1021.2 999.9
ЮВ 7 {11} 20 км ясно +18.4 +1.4 32 +18 +22 1020.4 999.2
В 7 {12} 20 км ясно +19.8 +2.2 31 +20 +24 1019.7 998.6
ЮВ 6-12 {12} 20 км 1/0
[Ci fib]
+20.5 +1.8 29 +21 +26 комфорт 1019.2 998.1
ЮВ 5-10 {11} 20 км 1/0
[Ci fib]
+21.0 +2.3 29 +21 +27 комфорт 1018.4 997.4
ЮВ 6-12 {12} 20 км 1/0
[Ci fib]
+21.3 +2.5 29 +21 +25 комфорт 1017.8 996.8
ЮВ 5 {12} 20 км 1/0
[Ci fib]
+21.1 +2.4 29 +21 +24 комфорт 1017.3 996.3
ЮВ 6 {11} 20 км 1/0
[Ci fib]
+20.7 +2.0 29 +21 +22 комфорт 1017.0 996.0
ЮВ 4 {10} 20 км 1/0
[Ci fib]
+20.2 +2.5 31 +21 +21 комфорт 1017.1 996.1
В 2 {12} 20 км 1/0
[Ci fib]
+18.5 +3.1 36 +19 +19 1017.1 995.9 +14.1 +21.4
В 2 20 км 1/0
[Ci fib]
+16.6 +3.3 41 +17 +17 1017.3 996.0
В 3 20 км 1/0
[Ci fib]
+15.4 +3.2 44 +15 +15 1017.4 996.0
В 3 50 км н/о +14.3 +3.7 49 +14 +14 1017.3 995.8
В 3 40 км н/о +13.7 +4.0 52 +13 +13 1017.3 995.8
ЮВ 3 50 км н/о +12.4 +3.3 54 +11 +11 1017.3 995.7
ЮВ 2 45 км н/о +11.0 +3.0 58 +10 +10 1017.3 995.6
В 2 50 км н/о +10.1 +3.4 63 +9 +9 1017.2 995.4
В 2 45 км н/о +9.3 +3.7 68 +8 +8 1016.9 995.1
В 1 30 км н/о +6.7 +4.4 85 +6 +6 1017.3 995.2
В 2 40 км н/о +11.1 +5.2 67 +10 +10 1017.2 995.5
ЮВ 3 20 км 1/0
[Ac trans Ci fib]
+13.8 +5.2 56 +13 +15 1017.1 995.6
ЮВ 3 20 км 1/0
[Ac trans Ci fib]
+16.2 +5.8 50 +16 +20 1017.0 995.7 +6.5 +18.5
ЮВ 5 20 км 1/1 1000 м
[Cu hum Ac trans Ci fib]
+18.6 +6.7 46 +19 +23 1016.8 995.6
ЮВ 7 {11} 20 км 1/1 1500 м
[Cu hum Ac trans Ci fib]
+19.5 +4.4 37 +19 +23 1016.6 995.5
ЮВ 6 {11} 20 км 1/1 1500 м
[Cu hum Ac trans Ci fib]
+20.6 +3.8 33 +21 +26 комфорт 1016.5 995.5
ЮВ 6 {10} 20 км 1/1 1500 м
[Cu hum Ac trans Ci fib]
+21.2 +3.8 32 +21 +27 комфорт 1016.3 995.3
ЮВ 6-11 {12} 20 км 3/3 2000 м
[Cu hum Ci fib]
+21.9 +2.0 27 +22 +26 комфорт 1015.7 994.8
Ю 6 {12} 20 км 3/3 2000 м
[Cu hum Ci fib]
+22.6 +2.6 27 +22 +26 комфорт 1015.4 994.6
ЮВ 6 {10} 20 км 3/3 2000 м
[Cu hum Ac trans Ci fib]
+22.7 +2.7 27 +22 +26 комфорт 1015.1 994.3
ЮВ 5 {11} 20 км 3/3 2000 м
[Cu hum Ac trans Ci fib]
+22.6 +1.6 25 +22 +25 комфорт 1014.8 994.0
Ю 4 {11} 20 км 4/3 2000 м
[Sc diur, vesp Ac trans Ci fib]
+22.6 +4.6 31 +23 +25 комфорт 1014.4 993.6
ЮВ 4 20 км 5/1 1500 м
[Sc diur, vesp Cs]
+20.7 +5.1 36 +22 +23 комфорт 1014.5 993.5
Ю 3 20 км 5/1 1500 м
[Cb calv Ac trans Cs]
+20.0 +6.0 40 +21 +22 комфорт 1014.6 993.6
Ю 2 {11} 20 км 5/1 1000 м
[Cb calv Cs]
+18.3 +4.8 41 +19 +19 1015.0 993.9 +16.2 +23.2
Ю 2 20 км 3/1 1000 м
[Sc Ci fib]
+16.0 +3.7 44 +16 +16 1015.7 994.4
ЮВ 2 20 км 1/1 1000 м
[Sc Ci fib]
+14.2 +3.3 48 +14 +14 1015.9 994.4
ЮВ 2 27 км н/о +12.3 +3.2 54 +12 +12 1015.9 994.3
ЮВ 2 30 км н/о +10.8 +3.6 61 +10 +10 1016.1 994.4
ЮВ 2 40 км н/о +9.2 +3.4 67 +8 +8 1015.9 994.1
ЮВ 2 45 км н/о +9.1 +4.1 71 +8 +8 1015.6 993.8
ЮВ 2 50 км н/о +8.5 +5.1 79 +7 +7 1016.0 994.1
ЮВ 2 40 км н/о +6.7 +4.0 83 +4 +4 1015.9 993.9
Ю 1 40 км н/о +7.2 +5.3 88 +6 +6 1016.0 994.0
ЮВ 2 40 км н/о +10.2 +7.4 83 +9 +9 1016.0 994.2
ЮВ 3 20 км 1/0
[Ac trans]
+12.3 +7.4 72 +11 +13 1015.8 994.2
В 2 20 км 1/0
[Ci fib]
+15.3 +8.3 63 +15 +21 1015.4 994.0 +6.6 +18.3
ЮВ 4 20 км 3/0
[Ci fib]
+17.7 +7.1 50 +17 +23 1015.3 994.1
ЮВ 4 20 км 3/1 1500 м
[Cu hum Ci fib]
+18.6 +5.4 42 +19 +26 1014.9 993.8
В 5 20 км 4/1 1500 м
[Cu hum Ci fib]
+20.3 +5.5 38 +21 +28 комфорт 1014.5 993.5
ЮВ 5 {9} 20 км 5/3 1500 м
[Cu hum Ci fib]
+20.5 +6.1 39 +21 +27 комфорт 1014.4 993.4
В 3 20 км 8/4 1500 м
[Cu med, cong Cs]
+20.6 +7.6 43 +22 +29 комфорт 1013.9 992.9
ЮВ 3 {9} 20 км 9/4 1500 м
[Cu med, cong Cs]
+20.8 +7.8 43 +22 +28 комфорт 1013.5 992.6
ЮВ 2 20 км 9/4 1500 м
[Cu med, cong Cs]
+21.7 +7.9 41 +23 +29 комфорт 1012.8 991.9
ЮВ 2 20 км 8/5 1000 м
[Cu med, cong Cs]
+20.9 +8.2 44 +23 +27 комфорт 1012.3 991.4
Ю 3 20 км 8/6 1000 м
[Cu med, cong Cs]
+21.7 +8.2 42 +23 +24 комфорт 1011.8 991.0
Ю 4 20 км 6/5 1000 м
[Cu med, cong Ci fib]
+21.6 +8.8 44 +23 +24 комфорт 1011.5 990.7
Ю 2 20 км 5/3 1000 м
[Cu med, cong Ci fib]
+21.2 +9.4 47 +23 +23 комфорт 1011.5 990.6
ЮВ 2 20 км 8/1 1000 м
[Cb cap Cs]
+19.4 +9.6 53 +21 +21 комфорт 1011.7 990.7 +15.3 +22.5
ЮВ 2 20 км 6/1 1000 м
[Cb cap Cs]
+16.9 +9.6 62 +17 +17 1012.1 990.9
В 1 20 км зарница 4/3 600 м
[Cb cap Ci fib]
+15.6 +10.1 70 +16 +16 1012.2 990.9
Ю 7 {9} 4000 м сильн. дождь н/о +16.2 +11.1 72 +15 +15 1012.6 991.4
ЮЗ 2 15 км в посл. час дождь н/о +14.3 +13.3 94 +14 +14 1012.4 991.0
В 1 26 км н/о +14.4 +13.4 94 +15 +15 1012.4 991.0
ЮВ 2 {9} 19 км н/о +14.0 +13.0 94 +13 +13 1012.3 990.9 4
ЮЗ 2 8000 м дымка н/о +13.5 +12.9 96 +13 +13 1012.6 991.2
штиль 0 9000 м слаб. ливневой дождь н/о +13.6 +13.1 97 +13 +13 1012.6 991.2
В 1 8000 м дымка н/о +13.7 +13.2 97 +14 +14 1012.5 991.1
ЮВ 1 {8} 7000 м дымка н/о +13.9 +13.6 98 +14 +14 1013.0 991.6
ЮВ 2 20 км 6/1 600 м
[Sc Ac trans Ci fib]
+15.6 +12.5 82 +15 +17 1013.2 991.9
ЮВ 1 {8} 20 км 6/1 300 м
[Cu hum Ac trans Cc]
+18.3 +14.0 76 +20 +24 1013.0 991.9 +13.4 +19.5 4 3.8
Ю 2 20 км 9/1 600 м
[Cu hum Ac trans Cs]
+20.0 +13.2 65 +23 +27 комфорт 1013.1 992.1
Ю 2 20 км 8/1 600 м
[Cu med, cong Ac trans Cs]
+21.8 +14.2 62 +25 +32 комфорт 1013.0 992.2
ЮВ 3 20 км 8/3 1000 м
[Cb calv Ac trans Cs]
+23.2 +13.1 53 +26 +32 жарко 1012.9 992.2
Ю 2 20 км 8/4 1000 м
[Cb calv Ac trans Ci fib]
+23.6 +11.6 47 +25 +32 комфорт 1012.8 992.1
Ю 2 20 км слаб. ливневой дождь 8/6 1000 м
[Cb cap Ci fib]
+23.6 +11.0 45 +25 +31 комфорт 1012.4 991.7
ЮВ 3 {8} 20 км гроза, ливневой дождь 9/8 1000 м
[Cb cap Ci fib]
+23.0 +12.9 53 +26 +28 жарко 1012.6 991.8 0.0
Ю 4 20 км гроза без осадков {ливн. дождь} 9/8 1000 м
[Cb cap Ci fib]
+24.1 +10.4 42 +25 +27 комфорт 1012.3 991.6
Ю 6 {10} 20 км гроза, ливневой дождь 9/9 1000 м
[Cb cap]
+20.1 +10.5 54 +21 +22 комфорт 1013.1 992.1
СВ 4 {10} 20 км гроза без осадков {ливн. дождь} 9/9 600 м
[Cb cap]
+19.3 +14.3 73 +21 +21 комфорт 1012.9 991.9
СЗ 1 20 км гроза без осадков 9/6 600 м
[Cb cap Cs]
+17.7 +12.6 72 +19 +20 1014.1 992.9
СВ 1 18 км гроза, ливневой дождь 9/6 600 м
[Cb cap Cs]
+16.7 +13.8 83 +18 +18 1014.4 993.2
Местоположение метеостанции Влодава (Польша): широта 51.55 долгота 23.53 высота над уровнем моря 179 м.
В архиве по умолчанию представлена погода в Влодаве за последнюю неделю. Архивные данные за месяц целиком и за предыдущие месяцы, начиная с января 2011 года, Вы можете получить, выбрав интересующий диапазон дат из раскрывающегося списка и нажав кнопку "Найти!".
*Определитесь, кто Вы:
Внимание! Время в таблицах - всемирное. Для получения местного времени необходимо прибавить поправку, которая равна 1 ч.
Некоторые строки с данными для отдельных станций могут быть выделены курсивом. Это означает, что фактические данные отсутствуют по различным причинам, а приведенные значения являются расчетными модельными данными для данного пункта наблюдений.
Смотрите также архив погоды в соседних городах и на ближайших метеорологических станциях:
Партнеры нашего сайта:      
Пояснения к столбцам:
  • Ветер - указаны скорость ветра в м/с - средняя за 10 мин, порывы в срок и между сроками (в фигурных скобках) и направление, откуда дует ветер: С - северный,
  • СВ - северо-восточный, В - восточный, ЮВ - юго-восточный, Ю - южный, ЮЗ - юго-западный, З - западный, СЗ - северо-западный.
  • Видимость - горизонтальная дальность видимости в метрах или километрах. При видимости от 1 до 10 км при отсутствии осадков обычно наблюдается дымка, при ухудшении видимости до 1 км и менее - туман. В сухую погоду видимость может ухудшаться дымом, пылью или мглою.
  • Явления - указаны атмосферные явления, наблюдавшиеся в срок или в последний час перед сроком; фигурными скобками обозначены явления, наблюдавшиеся между сроками (за 1-3 часа до срока); квадратными скобками обозначены град или гололедные отложения с указанием их диаметра в мм.
  • Облачность - указаны через наклонную черту общая и нижняя облачность в баллах и высота нижней границы облаков в метрах; квадратными скобками обозначены формы облаков: Ci - перистые, Cs - перисто-слоистые, Cc - перисто-кучевые, Ac - высококучевые, As - высокослоистые, Sc - слоисто-кучевые, Ns - слоисто-дождевые, Cu - кучевые, Cb - кучево-дождевые. Подробнее классификацию облаков см. в Атласе облаков (PDF).
  • T - Температура воздуха - температура, измеренная на высоте 2 м над землей.
  • Td - Температура точки росы - температура, при понижении до которой содержащийся в воздухе водяной пар достигнет насыщения.
  • f - Относительная влажность воздуха - влажноcть воздуха, измеренная на высоте 2 м над землей.
  • Te - Эффективная температура - температура, которую ощущает одетый по сезону человек в тени. Характеристика душности погоды. При расчете учитывается влияние влажности воздуха и скорости ветра на теплоощущения человека.
  • Tes - Эффективная температура на солнце - температура, которую ощущает человек, с поправкой на солнечный нагрев. Характеристика знойности погоды. Зависит от высоты солнца над горизонтом, облачности и скорости ветра. Ночью, в пасмурную погоду, а также при ветре 12 м/с и более поправка равна нулю.
  • P - Атмосферное давление - приведенное к уровню моря атмосферное давление.
  • Po - Атмосферное давление - измеренное на уровне метеостанции атмосферное давление.
  • Tmin - Минимальная температура - минимум температуры воздуха на высоте 2 м над землей.
  • Tmax - Максимальная температура - максимум температуры воздуха на высоте 2 м над землей.
  • R - Количество осадков - Количество выпавших осадков за период времени, мм. При наведении курсора мыши на число - период времени, за который выпало указанное количество осадков.
  • R24 - Количество осадков - Количество выпавших осадков за 24 часа, мм.
  • S - Снежный покров - Высота снежного покрова, см. При наведении курсора мыши на число - состояние снежного покрова и степень покрытия местности в баллах.